date,batt_volt,AirTemp_C,Solar_kW,RH,Manual_BP,StationID,WS_ms,PTemp,WS_15min_max,Prog_Sig,Solar_Raw,Bar_mbar,Solar_MJ,Max_WS_2min,Pressure_Raw,Rain_mm,WD_15min_ave,Max_AirTemp_1min,WindDir,WS_15min_med,WS_15min_ave,Elevation_Correction
2023-03-01T00:13:44Z,13.76177,-4.05225,-0.0004833187,54.7031,0,1156,4.2924,-3.4501,5.782,43690,0.0,1018.202,-2.416594e-06,4.978,1016.401,0,96.4242178569,-4.019,91.40479,4.0082,3.99736235294,1.80078
2023-03-01T00:28:45Z,13.76691,-4.255947,0.0004833187,55.99449,0,1156,4.0964,-3.513359,5.7036,43690,0.03383231,1018.202,2.416594e-06,5.468,1016.401,0,102.773656889,-4.119,97.05019,3.8318,3.773,1.80078
2023-03-01T00:43:42Z,13.76785,-4.356174,0.0,56.88061,0,1156,2.6068,-3.599213,5.978,43690,0.0,1018.202,0.0,5.527,1016.401,0,104.631192488,-4.288,103.0137,4.0768,4.10579408284,1.80078
2023-03-01T00:58:42Z,13.76787,-4.559986,0.0,58.06998,0,1156,3.5868,-3.66473,6.664,43690,0.0,1018.202,0.0,5.9,1016.401,0,111.571871729,-4.56,86.80186,4.3022,4.33643636364,1.80078
2023-03-01T01:13:42Z,13.7734,-4.6959,0.0,58.61364,0,1156,4.312,-3.75058,7.0952,43690,0.0,1018.294,0.0,5.625,1016.493,0,122.81615954,-4.696,128.9242,4.0376,4.03959745223,1.80078
2023-03-01T01:30:08Z,13.7734,-4.729881,0.0,58.61364,0,1156,4.802,-3.836434,5.782,43690,0.0,1018.294,0.0,5.586,1016.493,0,126.669064564,-4.696,119.1294,4.1356,4.06098482759,1.80078
2023-03-01T01:45:05Z,13.7734,-4.831818,0.0,57.76416,0,1156,2.2344,-3.922283,7.565599,43690,0.0,1018.294,0.0,7.566001,1016.493,0,127.313026909,-4.798,65.13759,3.9298,3.96800758861,1.80078
2023-03-01T02:00:07Z,13.7734,-4.865795,0.0,58.13793,0,1156,5.3116,-3.9878,6.9972,43690,0.0,1018.294,0.0,5.723,1016.493,0,128.044034452,-4.73,161.5895,3.969,3.91758356096,1.80078
2023-03-01T02:15:07Z,13.77894,-4.79784,0.0,57.01663,0,1156,6.076,-4.05106,8.4672,43690,0.0,1018.783,0.0,8.47,1016.983,0,128.144860275,-4.798,134.8589,4.1356,4.13757314765,1.80078
2023-03-01T02:30:08Z,13.78447,-4.79784,0.0,57.08459,0,1156,4.1944,-4.096245,5.6252,43690,0.0,1018.783,0.0,4.645,1016.983,0,127.936538667,-4.764,103.0139,3.185,3.28207764706,1.80078
2023-03-01T02:45:07Z,13.78447,-4.933754,0.0,59.8029,0,1156,4.6452,-4.139172,7.016799,43690,0.0,1018.783,0.0,5.429,1016.983,0,129.255872403,-4.866,142.7719,3.1654,3.18303999412,1.80078
2023-03-01T03:00:07Z,13.78447,-4.933754,0.0004833836,65.23952,0,1156,3.8416,-4.159504,6.8992,43690,0.03383686,1018.783,2.416918e-06,6.017,1016.983,0,124.698460629,-4.764,99.82938,3.528,3.69909647,1.80078
2023-03-01T03:15:08Z,13.78447,-4.967732,0.0,66.53072,0,1156,2.1756,-4.202431,7.565599,43690,0.0,1018.212,0.0,5.527,1016.412,0,127.762395452,-4.866,158.3567,3.1752,3.41662587647,1.80078
2023-03-01T03:30:08Z,13.78447,-4.967732,0.0,65.03565,0,1156,2.4892,-4.225025,7.016799,43690,0.0,1018.212,0.0,4.606,1016.412,0,124.632966305,-5.002,85.13724,3.4104,3.64559999412,1.80078
2023-03-01T03:45:09Z,13.78447,-5.069672,0.0,66.05502,0,1156,2.4108,-4.267948,7.369599,43690,0.0,1018.212,0.0,6.409,1016.412,0,122.929233702,-5.07,94.2565,3.3516,3.54990587,1.80078
2023-03-01T04:00:09Z,13.78447,-5.069672,0.0,67.31224,0,1156,2.4696,-4.333469,7.6048,43690,0.0,1018.212,0.0,5.096,1016.412,0,120.566786486,-5.07,148.8515,4.0082,3.90259058235,1.80078
2023-03-01T04:15:08Z,13.78447,-5.103649,0.0,67.71998,0,1156,3.8612,-4.353802,7.212799,43690,0.0,1018.131,0.0,4.9,1016.33,0,119.788602176,-5.036,118.7434,3.7044,3.65401645765,1.80078
2023-03-01T04:30:07Z,13.78447,-5.03569,0.0,69.04517,0,1156,1.6464,-4.353802,7.0364,43690,0.0,1018.131,0.0,5.37,1016.33,0,121.296965263,-5.036,159.0805,3.4888,3.53710822941,1.80078
2023-03-01T04:45:06Z,13.78447,-5.137627,0.0,68.36558,0,1156,5.3704,-4.353802,5.9976,43690,0.0,1018.131,0.0,3.783,1016.33,0,112.492044104,-5.07,124.0268,3.185,3.26074823412,1.80078
2023-03-01T05:00:10Z,13.78447,-5.103649,0.0,68.05978,0,1156,2.6656,-4.376392,6.3504,43690,0.0,1018.131,0.0,6.35,1016.33,0,113.250091702,-5.07,131.6744,3.234,3.27904561345,1.80078
2023-03-01T05:15:07Z,13.79001,-5.103649,0.0,67.51611,0,1156,5.1548,-4.396725,6.2524,43690,0.0,1018.783,0.0,5.704,1016.983,0,116.487690085,-5.104,89.35911,3.5574,3.50067529412,1.80078
2023-03-01T05:30:10Z,13.79001,-5.103649,0.0,67.5501,0,1156,2.254,-4.419319,6.389599,43690,0.0,1018.783,0.0,3.332,1016.983,0,106.054662806,-5.07,76.86235,3.2144,3.35354853216,1.80078
2023-03-01T05:45:08Z,13.79554,-5.375481,0.0,66.5647,0,1156,3.7632,-4.484836,3.9004,43690,0.0,1018.783,0.0,2.842,1016.983,0,87.9950095881,-5.341,95.05262,2.1854,2.17721411706,1.80078
2023-03-01T06:00:12Z,13.79554,-5.409458,0.0,66.59869,0,1156,2.4892,-4.527763,4.3708,43690,0.0,1018.783,0.0,4.136,1016.983,0,87.842257875,-5.375,144.5089,2.45,2.54032046725,1.80078
2023-03-01T06:15:09Z,13.79554,-5.545067,0.0,67.95845,0,1156,2.3128,-4.613613,5.488,43690,0.0,1018.131,0.0,4.194,1016.33,0,93.0271472301,-5.511,92.06195,2.4696,2.61959764706,1.80078
2023-03-01T06:30:12Z,13.79554,-5.817181,0.0,70.54029,0,1156,2.0384,-4.679134,5.1352,43690,0.0,1018.131,0.0,4.018,1016.33,0,94.6186914198,-5.749,71.24127,2.8616,2.86286081871,1.80078
2023-03-01T06:45:10Z,13.79578,-6.020214,-0.0004834006,72.98858,0,1156,3.3124,-4.787578,4.9392,43690,0.0,1018.131,-2.417003e-06,4.939,1016.33,0,101.840251468,-5.986,93.43863,2.6558,2.74492235294,1.80078
2023-03-01T07:01:11Z,13.80218,-6.085083,0.0,74.08269,0,1156,2.2344,-4.916355,5.194,43690,0.0,1018.848,0.0,4.292,1017.047,0,98.7384557397,-6.051,90.6242,2.9008,2.94316521739,1.80078
2023-03-01T07:16:11Z,13.80284,-6.049553,0.0,76.77083,0,1156,2.548,-4.981872,5.9192,43690,0.0,1018.848,0.0,4.351,1017.047,0,99.9031127985,-5.914,129.5001,2.842,2.93008470588,1.80078
2023-03-01T07:31:11Z,13.80341,-5.845375,0.0,80.57773,0,1156,5.8212,-5.024799,5.8212,43690,0.0,1018.848,0.0,4.547,1017.047,0,105.61598286,-5.777,112.6831,2.94,3.00243443642,1.80078
2023-03-01T07:46:10Z,13.80342,-5.81139,0.0,83.56838,0,1156,2.1952,-5.004463,7.9772,43690,0.0,1018.848,0.0,7.076,1017.047,0,110.107970736,-5.811,105.1307,3.9396,4.00289647059,1.80078
2023-03-01T08:01:08Z,13.79789,-5.845375,0.0,85.23363,0,1156,3.2928,-4.96154,7.0952,43690,0.0,1018.627,0.0,4.547,1016.826,0,111.698890929,-5.743,78.0819,4.0768,4.06561645882,1.80078
2023-03-01T08:16:12Z,13.80334,-5.777405,0.0,85.43754,0,1156,2.254,-4.938946,6.9972,43690,0.0,1018.627,0.0,5.978,1016.826,0,114.873640614,-5.675,98.35038,3.6848,3.84939415205,1.80078
2023-03-01T08:31:10Z,13.80892,-5.675736,0.0,85.2669,0,1156,4.9784,-4.896023,7.938,43690,0.0,1018.627,0.0,6.017,1016.826,0,116.272192983,-5.608,131.5992,4.3414,4.34808704647,1.80078
2023-03-01T08:46:09Z,13.80301,-5.710384,0.000483404,86.89649,0,1156,5.7428,-4.853096,7.8008,43690,0.03383828,1018.627,2.41702e-06,7.801001,1016.826,0,116.227862535,-5.54,130.5109,4.312,4.38117645235,1.80078
2023-03-01T09:01:14Z,13.80193,-5.541798,-0.0004834006,87.3349,0,1156,5.7428,-4.787578,8.1732,43690,0.0,1017.861,-2.417003e-06,7.154,1016.06,0,118.501917208,-5.508,115.4503,4.5668,4.62261987135,1.80078
2023-03-01T09:16:12Z,13.79588,-5.475452,0.0,86.92302,0,1156,3.1752,-4.699467,8.447599,43690,0.0,1017.861,0.0,7.703001,1016.06,0,116.78323819,-5.339,121.9107,5.3214,5.36025408235,1.80078
2023-03-01T09:31:11Z,13.79625,-5.340412,0.0,87.87226,0,1156,7.8204,-4.65654,10.3292,43690,0.0,1017.861,0.0,7.37,1016.06,0,118.125656074,-5.238,129.0247,5.1352,5.23758113529,1.80078
2023-03-01T09:46:10Z,13.79556,-5.375282,0.0,87.66611,0,1156,5.0764,-4.613613,9.074799,43690,0.0,1017.861,0.0,9.04,1016.06,0,117.782233964,-5.307,100.2401,4.9196,5.14465408824,1.80078
2023-03-01T10:01:09Z,13.79555,-5.273487,0.0,86.61241,0,1156,7.212799,-4.593281,9.2512,43690,0.0,1017.806,0.0,8.639999,1016.005,0,118.270259156,-5.273,100.5533,4.9196,5.01909878824,1.80078
2023-03-01T10:16:10Z,13.79555,-5.205559,0.0,86.30653,0,1156,4.0768,-4.57069,9.3492,43690,0.0,1017.806,0.0,5.88,1016.005,0,121.566106804,-5.172,151.8431,4.4786,4.63009646412,1.80078
2023-03-01T10:31:14Z,13.78448,-5.1376,0.0,85.96674,0,1156,3.626,-4.505169,9.408,43690,0.0,1017.806,0.0,7.252,1016.005,0,121.744404633,-5.104,82.29055,4.3708,4.60840698246,1.80078
2023-03-01T10:46:13Z,13.78448,-5.511368,0.0004834006,86.23856,0,1156,5.488,-4.484836,8.134,43690,0.03383804,1017.806,2.417003e-06,6.978,1016.005,0,120.383328471,-5.307,116.3069,4.459,4.59158822353,1.80078
2023-03-01T11:01:11Z,13.79555,-5.307495,0.001450202,86.47642,0,1156,3.0968,-4.462246,8.918,43690,0.1015141,1017.805,7.25101e-06,7.056,1016.004,0,120.454428292,-5.138,102.9175,4.1748,4.31972469412,1.80078
2023-03-01T11:16:15Z,13.79001,-5.443413,0.00773441,87.08804,0,1156,4.2532,-4.439652,8.3496,43690,0.5414087,1017.805,3.867205e-05,7.860001,1016.004,0,118.644986378,-5.375,163.5678,4.7432,4.74927483041,1.80078
2023-03-01T11:31:13Z,13.79001,-5.443413,0.01256838,87.59773,0,1156,4.0768,-4.439652,6.781599,43690,0.8797864,1017.805,6.284189e-05,5.037,1016.004,0,117.785436499,-5.375,95.1492,4.0964,4.04982117059,1.80078
2023-03-01T11:46:12Z,13.79555,-5.409432,0.02223642,87.6317,0,1156,3.4888,-4.439652,6.8992,43690,1.556549,1017.805,0.0001111821,6.644,1016.004,0,115.422579095,-5.307,132.0847,3.8612,3.95666352353,1.80078
2023-03-01T12:01:16Z,13.79001,-5.375454,0.02223642,87.66568,0,1156,5.3312,-4.419319,6.5464,43690,1.556549,1018.865,0.0001111821,5.821,1017.064,0,118.320958882,-5.307,105.4265,3.3712,3.60364912281,1.80078
2023-03-01T12:16:16Z,13.79001,-5.375454,0.04253924,87.97149,0,1156,3.332,-4.396725,7.4872,43690,2.977747,1018.865,0.0002126962,6.586,1017.064,0,117.372990662,-5.274,132.2053,3.8416,3.93083763529,1.80078
2023-03-01T12:31:15Z,13.78448,-5.375454,0.04398944,88.34526,0,1156,4.116,-4.290543,6.762,43690,3.079261,1018.865,0.0002199472,4.684,1017.064,0,116.089226197,-5.206,133.2185,3.6848,3.78210822941,1.80078
2023-03-01T12:46:14Z,13.78448,-5.273518,0.05994165,89.2627,0,1156,1.7836,-4.225025,6.6444,43690,4.195916,1018.865,0.0002997082,6.468,1017.064,0,115.921618061,-5.274,105.3059,3.5378,3.70612941176,1.80078
2023-03-01T13:01:14Z,13.77895,-5.205559,0.07831087,89.43258,0,1156,3.822,-4.116581,6.86,43690,5.481761,1019.681,0.0003915544,5.821,1017.88,0,118.455906281,-5.104,143.9783,3.7534,3.81508235294,1.80078
2023-03-01T13:16:14Z,13.77341,-5.171581,0.1213275,89.50054,0,1156,5.0372,-3.922283,7.643999,43690,8.492925,1019.681,0.0006066374,6.174,1017.88,0,118.547724218,-5.104,146.1496,4.2336,4.19908426415,1.80078
2023-03-01T13:31:13Z,13.76788,-5.001686,0.1507988,89.46657,0,1156,4.606,-3.685062,7.154,43690,10.55591,1019.681,0.0007539938,6.938,1017.88,0,116.298354341,-4.934,127.8628,4.459,4.44078351765,1.80078
2023-03-01T13:46:17Z,13.75681,-4.933727,0.1406459,88.82097,0,1156,5.6448,-3.407173,6.8992,43690,9.845211,1019.681,0.0007032294,5.429,1017.88,0,114.970350247,-4.832,116.6205,4.4688,4.42363975439,1.80078
2023-03-01T14:01:14Z,13.74902,-4.66679,0.180278,88.09521,0,1156,3.2144,-3.192547,8.427999,43690,12.61946,1019.287,0.0009013898,5.135,1017.486,0,115.379924673,-4.666,70.67662,4.0866,4.10533162658,1.80078
2023-03-01T14:16:14Z,13.73697,-4.669052,0.1512788,87.34218,0,1156,6.6052,-2.912399,6.8992,43690,10.58952,1019.287,0.0007563942,6.507,1017.486,0,116.851408811,-4.704,128.8982,4.1356,4.19197882353,1.80078
2023-03-01T14:31:16Z,13.73169,-4.533501,0.2131437,86.15234,0,1156,3.724,-2.677437,6.6836,43690,14.92006,1019.287,0.001065718,4.822,1017.486,0,121.364503423,-4.499,159.2398,3.6848,3.67938117647,1.80078
2023-03-01T14:46:15Z,13.72508,-4.399258,0.2711419,83.7025,0,1156,4.8804,-2.419884,6.0564,43690,18.97993,1019.287,0.00135571,5.116,1017.486,0,123.155779045,-4.331,118.3269,3.675,3.62000470588,1.80078
2023-03-01T15:01:20Z,13.70794,-4.402016,0.3460564,84.71505,0,1156,3.9396,-2.056145,6.8012,43690,24.22395,1019.263,0.001730282,6.527,1017.462,0,118.022252619,-4.334,104.6194,4.0376,4.05295905848,1.80078
2023-03-01T15:16:19Z,13.69682,-4.266292,0.3281579,84.85057,0,1156,5.4488,-1.692402,6.5268,43690,22.97105,1019.263,0.001640789,5.821,1017.462,0,115.404533548,-4.164,135.8985,4.2238,4.31384470588,1.80078
2023-03-01T15:31:18Z,13.68022,-4.096455,0.444997,84.17122,0,1156,4.9,-1.267666,8.192799,43690,31.14979,1019.263,0.002224985,7.056,1017.462,0,116.857030784,-4.029,132.6427,4.7726,4.78435997647,1.80078
2023-03-01T15:46:17Z,13.66175,-3.693657,0.5435501,83.2091,0,1156,4.018,-0.797741,6.6836,43690,38.04851,1019.263,0.002717751,5.998,1017.462,0,118.672037908,-3.829,107.6193,4.3512,4.29009411765,1.80078
2023-03-01T16:01:21Z,13.64845,-3.631352,0.6396762,81.73608,0,1156,6.0172,-0.3300743,7.056,43690,44.77733,1019.689,0.003198381,6.37,1017.888,0,114.573787699,-3.562,111.9666,4.7628,4.66548771345,1.80078
2023-03-01T16:16:16Z,13.62582,-3.463436,0.6004737,81.83374,0,1156,5.2528,0.2031097,7.2912,43690,42.03316,1019.689,0.003002368,6.311,1017.888,0,116.875531998,-3.497,99.81001,4.4296,4.47529466272,1.80078
2023-03-01T16:31:17Z,13.61475,-2.988102,0.5573978,80.57728,0,1156,4.8804,0.6278458,6.86,43690,39.01784,1019.689,0.002786989,5.566,1017.888,0,113.744557863,-2.988,100.9912,4.6844,4.58836,1.80078
2023-03-01T16:46:17Z,13.60151,-3.674572,0.3284353,81.95288,0,1156,2.94,1.118103,7.212799,43690,22.99047,1019.689,0.001642176,5.782,1017.888,0,110.015362915,-3.469,113.0227,4.5178,4.53716940588,1.80078
2023-03-01T17:01:18Z,13.61667,-3.543484,0.424067,82.04414,0,1156,3.822,1.158772,6.272,43690,29.68469,1018.425,0.002120335,5.743,1016.625,0,118.54119548,-3.577,142.0253,3.8808,3.80193882235,1.80078
2023-03-01T17:16:18Z,13.61181,-2.928539,0.3839787,81.03441,0,1156,3.822,1.158772,6.5072,43690,26.87851,1018.425,0.001919894,6.507,1016.625,0,115.95457906,-3.031,137.0269,3.7436,3.74821176471,1.80078
2023-03-01T17:31:18Z,13.61158,-3.370846,0.3260197,81.5075,0,1156,4.2336,1.118103,6.664,43690,22.82138,1018.425,0.001630098,4.841,1016.625,0,116.136749449,-3.201,101.4478,3.7044,3.91953881765,1.80078
2023-03-01T17:46:17Z,13.61848,-3.02784,0.307183,81.14184,0,1156,3.6652,0.9893265,5.4096,43690,21.50281,1018.425,0.001535915,5.41,1016.625,0,112.705607602,-2.892,98.80596,3.1752,3.15329411765,1.80078
2023-03-01T18:01:18Z,13.63072,-3.125088,0.2811014,82.0348,0,1156,2.1364,0.8831406,4.9392,43690,19.6771,1018.086,0.001405507,4.782,1016.286,0,109.669853565,-3.091,137.5597,3.6064,3.51404941176,1.80078
2023-03-01T18:16:20Z,13.63685,-3.226082,0.2139655,82.6819,0,1156,3.1556,0.6911049,5.3116,43690,14.97759,1018.086,0.001069828,4.939,1016.286,0,108.830903275,-3.09,125.4846,3.822,3.78233882353,1.80078
2023-03-01T18:31:19Z,13.64792,-3.157898,0.1415295,82.9202,0,1156,3.6456,0.4154778,4.7824,43690,9.907063,1018.086,0.0007076474,3.763,1016.286,0,107.964124554,-2.988,115.0465,3.4202,3.29187764706,1.80078
2023-03-01T18:46:19Z,13.65898,-2.954163,0.1598988,83.76909,0,1156,3.0772,0.0314064,4.214,43690,11.19292,1018.086,0.000799494,3.371,1016.286,0,105.545463887,-2.852,116.8788,3.1458,3.08826823529,1.80078
2023-03-01T19:01:20Z,13.65898,-2.988121,0.1463745,83.66722,0,1156,3.3908,-0.1809654,4.2336,43690,10.24621,1018.351,0.0007318724,3.783,1016.55,0,107.180789162,-2.852,106.2469,3.2046,3.20425411765,1.80078
2023-03-01T19:16:21Z,13.65898,-2.852295,0.1376982,83.97282,0,1156,2.4892,-0.2871513,4.1748,43690,9.638875,1018.351,0.000688491,3.293,1016.55,0,109.135251534,-2.818,96.43462,2.9204,2.81294588235,1.80078
2023-03-01T19:31:21Z,13.66451,-2.784386,0.1357637,84.78777,0,1156,2.9988,-0.3730011,3.8808,43690,9.503459,1018.351,0.0006788185,3.293,1016.55,0,105.917650247,-2.683,111.2856,2.9204,2.83231529412,1.80078
2023-03-01T19:46:21Z,13.66451,-2.715698,0.1062941,85.97801,0,1156,2.254,-0.4159279,4.0572,43690,7.440587,1018.351,0.0005314705,3.998,1016.55,0,109.811662695,-2.784,89.37263,3.1066,2.99557176412,1.80078
2023-03-01T20:01:22Z,13.66464,-2.715885,0.1000131,87.06418,0,1156,1.5288,-0.479187,4.018,43690,7.000919,1018.524,0.0005000657,3.175,1016.723,0,103.798346172,-2.648,103.259,2.4696,2.48458823529,1.80078
2023-03-01T20:16:22Z,13.6702,-2.61343,0.08068693,87.20138,0,1156,1.96,-0.52211,3.7632,43690,5.648085,1018.524,0.0004034346,2.528,1016.723,0,100.344427212,-2.546,89.78346,2.1658,2.18908941118,1.80078
2023-03-01T20:31:21Z,13.67572,-2.577381,0.05942809,87.57979,0,1156,2.0188,-0.5853691,3.4496,43690,4.159966,1018.524,0.0002971404,2.744,1016.723,0,100.86346302,-2.611,117.2747,2.1756,2.12221882353,1.80078
2023-03-01T20:46:22Z,13.67645,-2.61134,0.04686606,88.12314,0,1156,1.6464,-0.6486282,2.94,43690,3.280624,1018.524,0.0002343303,2.94,1016.723,0,102.76783171,-2.611,117.3712,1.8228,1.81127058706,1.80078
2023-03-01T21:01:22Z,13.67704,-2.609653,0.04396713,88.67047,0,1156,2.2932,-0.7344818,2.9008,43690,3.077699,1018.903,0.0002198356,2.901,1017.103,0,102.014007762,-2.475,112.1201,1.6366,1.65550823059,1.80078
2023-03-01T21:16:23Z,13.68328,-2.506611,0.03430402,89.38642,0,1156,1.666,-0.7774086,2.9792,43690,2.401282,1018.903,0.0001715201,2.901,1017.103,0,101.332113088,-2.473,96.93263,2.009,1.95181411529,1.80078
2023-03-01T21:31:23Z,13.68338,-2.472408,0.02850616,89.82848,0,1156,2.0972,-0.8406678,2.1952,43690,1.995431,1018.903,0.0001425308,2.195,1017.103,0,91.350784872,-2.506,119.0447,1.3524,1.39125411235,1.80078
2023-03-01T21:46:24Z,13.68343,-2.506371,0.005314708,90.20206,0,1156,0.7252,-0.9265175,2.352,43690,0.3720296,1018.903,2.657354e-05,2.078,1017.103,0,98.3827392102,-2.506,112.7512,1.3328,1.35043999353,1.80078
2023-03-01T22:01:24Z,13.68926,-2.505405,0.001932621,90.54402,0,1156,1.5876,-1.032703,2.0188,43690,0.1352835,1018.852,9.663105e-06,1.509,1017.051,0,103.280171134,-2.438,104.9896,1.1956,1.20113411,1.80078
2023-03-01T22:16:25Z,13.69637,-2.468609,0.0004831552,90.8905,0,1156,1.1564,-1.138886,2.2932,43690,0.03382087,1018.852,2.415776e-06,1.94,1017.051,0,102.983980226,-2.468,120.6724,1.3622,1.34859529,1.80078
2023-03-01T22:31:26Z,13.6966,-2.569519,0.0,91.02875,0,1156,1.8816,-1.267666,2.352,43690,0.0,1018.852,0.0,1.705,1017.051,0,104.757069297,-2.433,109.5823,1.2936,1.25624469882,1.80078
2023-03-01T22:46:28Z,13.69681,-2.39817,0.0,91.23625,0,1156,0.9799999,-1.330925,2.6656,43690,0.0,1018.852,0.0,1.999,1017.051,0,110.501747333,-2.398,124.1292,1.4798,1.47680234765,1.80078
2023-03-01T23:01:24Z,13.70235,-2.398102,0.0,91.47418,0,1156,1.4112,-1.394184,2.4696,43690,0.0,1018.934,0.0,1.627,1017.133,0,121.255317971,-2.33,135.7296,1.1956,1.26089466391,1.80078
2023-03-01T23:16:26Z,13.69682,-2.262234,0.0,91.64402,0,1156,1.1564,-1.459702,2.1952,43690,0.0,1018.934,0.0,2.195,1017.133,0,120.282748042,-2.16,104.8359,1.1956,1.25785881118,1.80078
2023-03-01T23:31:28Z,13.70235,-2.092396,0.0,91.67798,0,1156,1.4504,-1.522961,2.744,43690,0.0,1018.934,0.0,2.352,1017.133,0,129.379225559,-2.024,124.877,1.3622,1.38041646412,1.80078
2023-03-01T23:46:29Z,13.70235,-1.990494,0.0,91.64402,0,1156,1.176,-1.522961,2.4304,43690,0.0,1018.934,0.0,1.921,1017.133,0,126.96881402,-1.889,132.932,1.4602,1.48717882176,1.80078
2023-03-02T00:01:30Z,13.70235,-1.78669,0.0,91.40623,0,1156,1.6464,-1.459702,2.4892,43690,0.0,1018.363,0.0,1.705,1016.562,0,128.286673369,-1.719,124.66,1.3818,1.35620469647,1.80078
2023-03-02T00:16:30Z,13.69682,-1.922558,0.0,91.30434,0,1156,1.568,-1.394184,2.4108,43690,0.0,1018.363,0.0,2.411,1016.562,0,126.382994577,-1.787,122.1759,1.4896,1.52407293824,1.80078
2023-03-02T00:31:31Z,13.69128,-1.888592,0.0,91.37227,0,1156,1.7444,-1.330925,2.2148,43690,0.0,1018.363,0.0,1.803,1016.562,0,118.205014605,-1.753,121.5489,1.5386,1.50458823,1.80078
2023-03-02T00:46:31Z,13.69682,-1.752724,0.0,91.57607,0,1156,1.2152,-1.267666,2.6264,43690,0.0,1018.363,0.0,1.509,1016.562,0,115.975242967,-1.651,120.6325,1.568,1.59601646824,1.80078
2023-03-02T01:01:31Z,13.69128,-1.549572,0.0,91.71039,0,1156,0.2156,-1.159222,2.0972,43690,0.0,1019.015,0.0,0.647,1017.215,0,104.357097137,-1.413,90.96718,1.0388,1.01504940235,1.80078
2023-03-02T01:16:32Z,13.69095,-1.484673,0.0,91.70316,0,1156,0.5096,-1.075626,1.078,43690,0.0,1019.015,0.0,1.019,1017.215,0,50.2941145817,-1.484,21.53428,0.2156,0.303569407647,1.80078
2023-03-02T01:31:52Z,13.68366,-1.485813,0.0,91.90423,0,1156,0.3528,-0.9897766,0.8035999,43690,0.0,1019.015,0.0,0.196,1017.215,0,14.5532137056,-1.519,348.7823,0.2646,0.245414083803,1.80078
2023-03-02T01:46:50Z,13.6839,-1.724464,0.0,92.17374,0,1156,0.4508,-0.9265175,0.9408,43690,0.0,1019.015,0.0,0.196,1017.215,0,110.363437908,-1.69,149.888,0.0392,0.208989347929,1.80078
2023-03-02T02:01:52Z,13.67821,-1.793148,0.0,92.30775,0,1156,1.0976,-0.9039269,1.1172,43690,0.0,1018.928,0.0,0.666,1017.127,0,130.776175425,-1.657,108.2181,0.392,0.371247057059,1.80078
2023-03-02T02:16:53Z,13.67791,-1.691277,0.0,92.5115,0,1156,0.0,-0.8610001,1.078,43690,0.0,1018.928,0.0,0.549,1017.127,0,72.0308147788,-1.589,51.2155,0.0,0.214447057647,1.80078
2023-03-02T02:31:54Z,13.6779,-1.725239,0.0,92.64734,0,1156,0.4116,-0.8203316,0.7252,43690,0.0,1018.928,0.0,0.09800001,1017.127,0,25.7082050786,-1.555,270.1593,0.0,0.167637647059,1.80078
2023-03-02T02:46:49Z,13.6776,-1.657314,0.0,92.78318,0,1156,0.4312,-0.797741,1.6268,43690,0.0,1018.928,0.0,0.392,1017.127,0,206.07560873,-1.555,183.4258,0.392,0.463093488166,1.80078
2023-03-02T03:01:51Z,13.67789,-1.555428,0.0,92.78318,0,1156,3.0184,-0.7774086,3.1948,43690,0.0,1019.009,0.0,3.195,1017.209,0,237.095225753,-1.386,259.9355,2.3716,2.19508470588,1.80078
2023-03-02T03:16:51Z,13.6778,-1.82769,0.0,92.7818,0,1156,1.0584,-0.7774086,3.4888,43690,0.0,1019.009,0.0,1.509,1017.209,0,315.140163589,-1.726,345.579,1.0878,1.07211999471,1.80078
2023-03-02T03:31:51Z,13.67735,-2.133614,0.0,93.05282,0,1156,1.1956,-0.7774086,1.9012,43690,0.0,1019.009,0.0,1.901,1017.209,0,15.6434048283,-2.031,17.84305,0.93099995,0.973082338824,1.80078
2023-03-02T03:46:50Z,13.67784,-2.234718,0.0,92.71512,0,1156,2.1756,-0.8610001,2.94,43690,0.0,1019.009,0.0,2.94,1017.209,0,50.1631263518,-2.167,54.06072,1.8522,1.83813411353,1.80078
2023-03-02T04:01:55Z,13.68373,-2.30196,0.0,92.10548,0,1156,1.372,-0.9468498,2.4304,43690,0.0,1018.52,0.0,1.019,1016.719,0,30.2587747792,-2.133,312.1448,1.4896,1.39561168947,1.80078
2023-03-02T04:16:53Z,13.6897,-2.301086,0.0,91.70006,0,1156,1.5876,-1.075626,3.2536,43690,0.0,1018.52,0.0,1.882,1016.719,0,11.6394435312,-2.335,342.4148,1.2054,1.22165646471,1.80078
2023-03-02T04:31:53Z,13.69654,-2.671543,0.0,90.82465,0,1156,1.3132,-1.224739,2.5872,43690,0.0,1018.52,0.0,1.411,1016.719,0,2.69961392427,-2.638,27.15433,1.078,1.16227999118,1.80078
2023-03-02T04:46:51Z,13.70783,-3.213356,0.0,89.84365,0,1156,1.6268,-1.629143,2.3716,43690,0.0,1018.52,0.0,1.882,1016.719,0,41.5424068417,-3.077,24.6715,1.372,1.37983999706,1.80078
2023-03-02T05:01:55Z,13.73001,-3.58696,0.0,89.30026,0,1156,2.156,-2.184921,2.3324,43690,0.0,1018.037,0.0,2.215,1016.236,0,39.2166268964,-3.519,31.3519,1.5484,1.59080935614,1.80078
2023-03-02T05:16:54Z,13.7466,-3.686703,0.0,87.40329,0,1156,1.6464,-2.763287,2.6068,43690,0.0,1018.037,0.0,1.901,1016.236,0,44.2435699315,-3.619,49.346,1.8326,1.85831058824,1.80078
2023-03-02T05:31:53Z,13.75844,-3.956585,0.0,86.4906,0,1156,2.45,-3.169952,2.8812,43690,0.0,1018.037,0.0,2.411,1016.236,0,45.5134491124,-3.786,39.99019,1.666,1.71142588235,1.80078
2023-03-02T05:46:53Z,13.76033,-4.260239,0.0,86.35977,0,1156,1.5876,-3.407173,2.5088,43690,0.0,1018.037,0.0,2.176,1016.236,0,39.7539218705,-4.09,33.57635,1.9012,1.87133882353,1.80078
2023-03-02T06:01:54Z,13.77313,-4.492558,0.0,86.81485,0,1156,2.1364,-3.727989,2.9008,43690,0.0,1017.874,0.0,2.47,1016.073,0,37.5025781678,-4.425,58.52646,1.9208,1.97936941176,1.80078
2023-03-02T06:16:54Z,13.78447,-4.152241,0.0,85.96666,0,1156,1.9796,-4.008137,3.2144,43690,0.0,1017.874,0.0,2.45,1016.073,0,65.2574647738,-4.084,83.59324,2.2736,2.31164705882,1.80078
2023-03-02T06:31:54Z,13.79001,-4.526009,0.0,86.37442,0,1156,1.6268,-4.245358,2.9792,43690,0.0,1017.874,0.0,2.313,1016.073,0,66.5256447223,-4.458,65.71659,2.0384,2.06537882294,1.80078
2023-03-02T06:46:53Z,13.79554,-4.6959,0.0,86.27248,0,1156,1.9796,-4.462246,2.4892,43690,0.0,1017.874,0.0,1.921,1016.073,0,50.1157059358,-4.628,58.57558,1.6464,1.65919764529,1.80078
2023-03-02T07:01:56Z,13.80107,-5.069672,0.0,85.96666,0,1156,1.666,-4.699467,2.3324,43690,0.0,1017.56,0.0,1.901,1015.759,0,61.4598400491,-4.866,54.61907,1.5288,1.53751110936,1.80078